| time (UTC) | temp F | wind direction | speed MPH | gust MPH | rain 1hr in | rain 24hr in | rain mn in | humidity % | barometer mb |
| 20260506172356 | 70 | 194 | 5.0 | 7.0 | 0.00 | 0.00 | 0.00 | 70 | 1012.1 |
| 20260506171853 | 70 | 164 | 5.0 | 6.0 | 0.00 | 0.00 | 0.00 | 71 | 1012.0 |
| 20260506171351 | 69 | 159 | 4.0 | 4.0 | 0.00 | 0.00 | 0.00 | 72 | 1012.4 |
| 20260506170848 | 69 | 193 | 4.0 | 7.0 | 0.00 | 0.00 | 0.00 | 73 | 1012.6 |
| 20260506170343 | 68 | 135 | 4.0 | 5.0 | 0.00 | 0.00 | 0.00 | 74 | 1012.6 |
| 20260506165838 | 68 | 159 | 4.0 | 6.0 | 0.00 | 0.00 | 0.00 | 73 | 1012.6 |
| 20260506165335 | 68 | 167 | 3.0 | 5.0 | 0.00 | 0.00 | 0.00 | 73 | 1012.9 |
| 20260506164831 | 68 | 158 | 7.0 | 7.0 | 0.00 | 0.00 | 0.00 | 73 | 1013.1 |
| 20260506164328 | 68 | 186 | 3.0 | 11.0 | 0.00 | 0.00 | 0.00 | 73 | 1013.3 |
| 20260506163826 | 68 | 157 | 5.0 | 7.0 | 0.00 | 0.00 | 0.00 | 73 | 1013.4 |
| 20260506163320 | 68 | 128 | 5.0 | 8.0 | 0.00 | 0.00 | 0.00 | 72 | 1013.4 |
| 20260506162816 | 68 | 161 | 6.0 | 6.0 | 0.00 | 0.00 | 0.00 | 72 | 1013.5 |
| 20260506162314 | 68 | 187 | 4.0 | 5.0 | 0.00 | 0.00 | 0.00 | 72 | 1013.5 |
| 20260506161811 | 68 | 172 | 3.0 | 7.0 | 0.00 | 0.00 | 0.00 | 72 | 1013.6 |
| 20260506161308 | 67 | 169 | 4.0 | 7.0 | 0.00 | 0.00 | 0.00 | 72 | 1013.4 |
| 20260506160806 | 68 | 160 | 5.0 | 6.0 | 0.00 | 0.00 | 0.00 | 72 | 1013.6 |
| 20260506160302 | 68 | 160 | 6.0 | 6.0 | 0.00 | 0.00 | 0.00 | 71 | 1013.6 |
| 20260506155801 | 68 | 254 | 2.0 | 9.0 | 0.00 | 0.00 | 0.00 | 72 | 1013.6 |
| 20260506155257 | 68 | 180 | 4.0 | 5.0 | 0.00 | 0.00 | 0.00 | 72 | 1013.7 |
| 20260506153410 | 68 | 163 | 3.0 | 6.0 | 0.00 | 0.00 | 0.00 | 71 | 1013.6 |
| 20260506152907 | 68 | 157 | 3.0 | 9.0 | 0.00 | 0.00 | 0.00 | 71 | 1013.7 |
| 20260506152404 | 68 | 103 | 5.0 | 7.0 | 0.00 | 0.00 | 0.00 | 70 | 1013.8 |
| 20260506151903 | 68 | 121 | 5.0 | 5.0 | 0.00 | 0.00 | 0.00 | 71 | 1013.8 |
| 20260506151359 | 68 | 156 | 5.0 | 5.0 | 0.00 | 0.00 | 0.00 | 71 | 1013.8 |
| 20260506150857 | 68 | 158 | 2.0 | 8.0 | 0.00 | 0.00 | 0.00 | 70 | 1013.9 |
| 20260506150353 | 68 | 191 | 2.0 | 6.0 | 0.00 | 0.00 | 0.00 | 70 | 1013.9 |
| 20260506145850 | 68 | 160 | 5.0 | 5.0 | 0.00 | 0.00 | 0.00 | 70 | 1013.9 |
| 20260506145346 | 68 | 166 | 4.0 | 7.0 | 0.00 | 0.00 | 0.00 | 70 | 1014.1 |
| 20260506144844 | 69 | 112 | 4.0 | 6.0 | 0.00 | 0.00 | 0.00 | 69 | 1013.9 |
| 20260506144340 | 69 | 192 | 3.0 | 11.0 | 0.00 | 0.00 | 0.00 | 69 | 1014.0 |
| 20260506143838 | 69 | 159 | 5.0 | 7.0 | 0.00 | 0.00 | 0.00 | 68 | 1014.0 |
| 20260506143335 | 70 | 213 | 3.0 | 5.0 | 0.00 | 0.00 | 0.00 | 68 | 1014.0 |
| 20260506142834 | 70 | 154 | 7.0 | 8.0 | 0.00 | 0.00 | 0.00 | 68 | 1013.9 |
| 20260506142331 | 70 | 154 | 7.0 | 7.0 | 0.00 | 0.00 | 0.00 | 67 | 1014.0 |
| 20260506141829 | 69 | 162 | 4.0 | 6.0 | 0.00 | 0.00 | 0.00 | 68 | 1014.0 |
| 20260506141327 | 70 | 198 | 2.0 | 6.0 | 0.00 | 0.00 | 0.00 | 67 | 1013.9 |
| 20260506140825 | 70 | 196 | 4.0 | 5.0 | 0.00 | 0.00 | 0.00 | 66 | 1013.8 |
| 20260506140321 | 70 | 158 | 5.0 | 7.0 | 0.00 | 0.00 | 0.00 | 66 | 1013.9 |
| 20260506135818 | 70 | 187 | 4.0 | 8.0 | 0.00 | 0.00 | 0.00 | 65 | 1013.9 |
| 20260506135315 | 71 | 169 | 5.0 | 7.0 | 0.00 | 0.00 | 0.00 | 64 | 1014.0 |
| 20260506134811 | 73 | 157 | 7.0 | 8.0 | 0.00 | 0.00 | 0.00 | 63 | 1014.0 |
| 20260506134308 | 72 | 246 | 2.0 | 5.0 | 0.00 | 0.00 | 0.00 | 63 | 1013.9 |
| 20260506133805 | 71 | 161 | 3.0 | 6.0 | 0.00 | 0.00 | 0.00 | 65 | 1014.0 |
| 20260506133302 | 72 | 190 | 2.0 | 9.0 | 0.00 | 0.00 | 0.00 | 63 | 1014.1 |
| 20260506132758 | 72 | 157 | 4.0 | 7.0 | 0.00 | 0.00 | 0.00 | 63 | 1014.4 |
| 20260506132256 | 72 | 195 | 2.0 | 7.0 | 0.00 | 0.00 | 0.00 | 64 | 1014.3 |
| 20260506131754 | 71 | 157 | 6.0 | 9.0 | 0.00 | 0.00 | 0.00 | 64 | 1014.3 |
| 20260506131249 | 71 | 142 | 2.0 | 6.0 | 0.00 | 0.00 | 0.00 | 64 | 1014.3 |
| 20260506130746 | 70 | 179 | 5.0 | 7.0 | 0.00 | 0.00 | 0.00 | 66 | 1014.3 |
| 20260506130243 | 71 | 155 | 4.0 | 9.0 | 0.00 | 0.00 | 0.00 | 65 | 1014.4 |
| 20260506125741 | 70 | 166 | 4.0 | 6.0 | 0.00 | 0.00 | 0.00 | 66 | 1014.1 |
| 20260506125239 | 69 | 182 | 3.0 | 9.0 | 0.00 | 0.00 | 0.00 | 67 | 1014.3 |
| 20260506124737 | 69 | 150 | 11.0 | 12.0 | 0.00 | 0.00 | 0.00 | 67 | 1014.1 |
| 20260506124234 | 68 | 184 | 6.0 | 8.0 | 0.00 | 0.00 | 0.00 | 69 | 1014.2 |
| 20260506123732 | 67 | 160 | 5.0 | 7.0 | 0.00 | 0.00 | 0.00 | 70 | 1014.2 |
| 20260506123230 | 67 | 177 | 3.0 | 5.0 | 0.00 | 0.00 | 0.00 | 70 | 1014.2 |
| 20260506122727 | 68 | 180 | 1.0 | 11.0 | 0.00 | 0.00 | 0.00 | 69 | 1014.2 |
| 20260506122224 | 68 | 178 | 3.0 | 7.0 | 0.00 | 0.00 | 0.00 | 69 | 1014.2 |
| 20260506121722 | 67 | 165 | 5.0 | 5.0 | 0.00 | 0.00 | 0.00 | 70 | 1014.2 |
| 20260506121219 | 67 | 157 | 4.0 | 6.0 | 0.00 | 0.00 | 0.00 | 71 | 1014.3 |
| 20260506120716 | 65 | 153 | 7.0 | 7.0 | 0.00 | 0.00 | 0.00 | 74 | 1014.4 |
| 20260506120213 | 66 | 198 | 4.0 | 9.0 | 0.00 | 0.00 | 0.00 | 72 | 1014.2 |
| 20260506115711 | 66 | 176 | 3.0 | 8.0 | 0.00 | 0.00 | 0.00 | 72 | 1014.1 |
| 20260506115209 | 66 | 154 | 8.0 | 11.0 | 0.00 | 0.00 | 0.00 | 72 | 1014.3 |
| 20260506114707 | 65 | 159 | 3.0 | 7.0 | 0.00 | 0.00 | 0.00 | 73 | 1014.5 |
| 20260506114204 | 66 | 177 | 3.0 | 6.0 | 0.00 | 0.00 | 0.00 | 73 | 1014.5 |
| 20260506113703 | 66 | 161 | 5.0 | 9.0 | 0.00 | 0.00 | 0.00 | 73 | 1014.4 |
| 20260506113200 | 65 | 168 | 4.0 | 6.0 | 0.00 | 0.00 | 0.00 | 74 | 1014.5 |
| 20260506112655 | 65 | 182 | 3.0 | 9.0 | 0.00 | 0.00 | 0.00 | 74 | 1014.6 |
| 20260506112153 | 64 | 188 | 2.0 | 6.0 | 0.00 | 0.00 | 0.00 | 75 | 1014.5 |
| 20260506111651 | 64 | 159 | 5.0 | 8.0 | 0.00 | 0.00 | 0.00 | 75 | 1014.4 |
| 20260506111149 | 64 | 10 | 2.0 | 12.0 | 0.00 | 0.00 | 0.00 | 75 | 1014.6 |
| 20260506110646 | 64 | 174 | 4.0 | 8.0 | 0.00 | 0.00 | 0.00 | 75 | 1014.1 |
| 20260506110143 | 64 | 158 | 5.0 | 8.0 | 0.00 | 0.00 | 0.00 | 76 | 1014.3 |
| 20260506105639 | 63 | 136 | 7.0 | 7.0 | 0.00 | 0.00 | 0.00 | 78 | 1014.5 |
| 20260506105137 | 63 | 157 | 5.0 | 5.0 | 0.00 | 0.00 | 0.00 | 78 | 1014.3 |
| 20260506104634 | 62 | 180 | 5.0 | 5.0 | 0.00 | 0.00 | 0.00 | 80 | 1014.3 |
| 20260506104132 | 61 | 191 | 5.0 | 6.0 | 0.00 | 0.00 | 0.00 | 81 | 1014.4 |
| 20260506103629 | 61 | 152 | 3.0 | 6.0 | 0.00 | 0.00 | 0.00 | 82 | 1014.5 |
| 20260506103126 | 61 | 190 | 3.0 | 7.0 | 0.00 | 0.00 | 0.00 | 82 | 1014.5 |
| 20260506102624 | 61 | 191 | 4.0 | 9.0 | 0.00 | 0.00 | 0.00 | 82 | 1014.3 |
| 20260506102121 | 61 | 161 | 4.0 | 7.0 | 0.00 | 0.00 | 0.00 | 82 | 1014.4 |
| 20260506101617 | 61 | 152 | 5.0 | 6.0 | 0.00 | 0.00 | 0.00 | 82 | 1014.3 |
| 20260506101114 | 61 | 183 | 4.0 | 6.0 | 0.00 | 0.00 | 0.00 | 82 | 1014.4 |
| 20260506100613 | 61 | 135 | 3.0 | 8.0 | 0.00 | 0.00 | 0.00 | 82 | 1014.1 |
| 20260506100110 | 61 | 158 | 4.0 | 6.0 | 0.00 | 0.00 | 0.00 | 82 | 1014.2 |
| 20260506095609 | 61 | 195 | 2.0 | 6.0 | 0.00 | 0.00 | 0.00 | 82 | 1014.0 |
| 20260506095106 | 61 | 156 | 5.0 | 7.0 | 0.00 | 0.00 | 0.00 | 82 | 1014.2 |
| 20260506094603 | 61 | 174 | 3.0 | 9.0 | 0.00 | 0.00 | 0.00 | 82 | 1014.1 |
| 20260506094100 | 61 | 180 | 3.0 | 7.0 | 0.00 | 0.00 | 0.00 | 82 | 1014.2 |
| 20260506093559 | 61 | 154 | 4.0 | 7.0 | 0.00 | 0.00 | 0.00 | 83 | 1014.0 |
| 20260506093056 | 61 | 203 | 4.0 | 9.0 | 0.00 | 0.00 | 0.00 | 83 | 1014.2 |
| 20260506092554 | 61 | 152 | 4.0 | 9.0 | 0.00 | 0.00 | 0.00 | 83 | 1014.2 |
| 20260506092050 | 61 | 158 | 7.0 | 7.0 | 0.00 | 0.00 | 0.00 | 83 | 1014.4 |
| 20260506091548 | 61 | 148 | 3.0 | 5.0 | 0.00 | 0.00 | 0.00 | 83 | 1014.5 |
| 20260506091046 | 61 | 159 | 5.0 | 8.0 | 0.00 | 0.00 | 0.00 | 83 | 1014.3 |
| 20260506090543 | 61 | 162 | 7.0 | 10.0 | 0.00 | 0.00 | 0.00 | 83 | 1014.5 |
| 20260506090039 | 61 | 169 | 3.0 | 6.0 | 0.00 | 0.00 | 0.00 | 83 | 1014.6 |
| 20260506085536 | 61 | 182 | 3.0 | 6.0 | 0.00 | 0.00 | 0.00 | 83 | 1014.5 |
| 20260506085033 | 61 | 185 | 5.0 | 7.0 | 0.00 | 0.00 | 0.00 | 83 | 1014.5 |
| 20260506084530 | 61 | 137 | 6.0 | 8.0 | 0.00 | 0.00 | 0.00 | 83 | 1014.5 |
| 20260506084025 | 61 | 154 | 3.0 | 5.0 | 0.00 | 0.00 | 0.00 | 83 | 1014.8 |
| 20260506083523 | 61 | 178 | 3.0 | 5.0 | 0.00 | 0.00 | 0.00 | 83 | 1014.5 |
| 20260506083021 | 61 | 178 | 3.0 | 7.0 | 0.00 | 0.00 | 0.00 | 83 | 1014.6 |
| 20260506082517 | 61 | 181 | 4.0 | 5.0 | 0.00 | 0.00 | 0.00 | 83 | 1014.7 |
| 20260506082013 | 61 | 228 | 2.0 | 4.0 | 0.00 | 0.00 | 0.00 | 83 | 1014.6 |
| 20260506081511 | 61 | 180 | 5.0 | 8.0 | 0.00 | 0.00 | 0.00 | 83 | 1014.7 |
| 20260506081009 | 61 | 152 | 4.0 | 5.0 | 0.00 | 0.00 | 0.00 | 82 | 1014.6 |
| 20260506080506 | 61 | 160 | 3.0 | 8.0 | 0.00 | 0.00 | 0.00 | 82 | 1014.7 |
| 20260506073449 | 61 | 195 | 5.0 | 7.0 | 0.00 | 0.00 | 0.00 | 81 | 1014.6 |
| 20260506072946 | 61 | 187 | 4.0 | 8.0 | 0.00 | 0.00 | 0.00 | 81 | 1014.8 |
| 20260506072443 | 61 | 190 | 4.0 | 7.0 | 0.00 | 0.00 | 0.00 | 81 | 1014.9 |
| 20260506071941 | 61 | 160 | 4.0 | 6.0 | 0.00 | 0.00 | 0.00 | 81 | 1014.9 |
| 20260506071439 | 61 | 176 | 6.0 | 6.0 | 0.00 | 0.00 | 0.00 | 81 | 1014.8 |
| 20260506070936 | 61 | 158 | 4.0 | 5.0 | 0.00 | 0.00 | 0.00 | 81 | 1014.9 |
| 20260506070433 | 62 | 177 | 3.0 | 6.0 | 0.00 | 0.00 | 0.00 | 80 | 1015.0 |
| 20260506062410 | 62 | 198 | 3.0 | 5.0 | 0.00 | 0.00 | 0.00 | 79 | 1014.6 |
| 20260506061906 | 62 | 187 | 2.0 | 6.0 | 0.00 | 0.00 | 0.00 | 78 | 1014.6 |
| 20260506061403 | 62 | 161 | 6.0 | 6.0 | 0.00 | 0.00 | 0.00 | 78 | 1014.7 |
| 20260506060901 | 62 | 181 | 6.0 | 10.0 | 0.00 | 0.00 | 0.00 | 78 | 1014.8 |
| 20260506060358 | 62 | 163 | 5.0 | 6.0 | 0.00 | 0.00 | 0.00 | 78 | 1014.9 |
| 20260506051330 | 62 | 180 | 2.0 | 6.0 | 0.00 | 0.00 | 0.00 | 77 | 1015.2 |
| 20260506050828 | 63 | 177 | 2.0 | 6.0 | 0.00 | 0.00 | 0.00 | 77 | 1015.1 |
| 20260506050325 | 63 | 165 | 3.0 | 5.0 | 0.00 | 0.00 | 0.00 | 77 | 1015.4 |
| 20260506044816 | 63 | 180 | 1.0 | 13.0 | 0.00 | 0.00 | 0.00 | 76 | 1015.3 |
| 20260506044314 | 63 | 177 | 3.0 | 9.0 | 0.00 | 0.00 | 0.00 | 76 | 1015.3 |
| 20260506043810 | 63 | 143 | 4.0 | 5.0 | 0.00 | 0.00 | 0.00 | 76 | 1015.2 |
| 20260506043308 | 63 | 161 | 4.0 | 7.0 | 0.00 | 0.00 | 0.00 | 76 | 1015.2 |
| 20260506042806 | 63 | 155 | 4.0 | 7.0 | 0.00 | 0.00 | 0.00 | 76 | 1015.2 |
| 20260506042305 | 63 | 163 | 5.0 | 5.0 | 0.00 | 0.00 | 0.00 | 76 | 1015.4 |
| 20260506041803 | 63 | 120 | 0.0 | 5.0 | 0.00 | 0.00 | 0.00 | 75 | 1015.3 |
| 20260506041259 | 63 | 206 | 3.0 | 7.0 | 0.00 | 0.00 | 0.00 | 75 | 1015.2 |
| 20260506040757 | 64 | 164 | 5.0 | 9.0 | 0.00 | 0.00 | 0.00 | 74 | 1015.3 |
| 20260506040254 | 64 | 168 | 5.0 | 10.0 | 0.00 | 0.00 | 0.00 | 74 | 1015.2 |
| 20260506035750 | 64 | 177 | 5.0 | 7.0 | 0.00 | 0.00 | 0.00 | 74 | 1015.3 |
| 20260506035247 | 64 | 161 | 5.0 | 8.0 | 0.00 | 0.00 | 0.00 | 73 | 1015.2 |
| 20260506034744 | 64 | 161 | 6.0 | 6.0 | 0.00 | 0.00 | 0.00 | 73 | 1015.5 |
| 20260506034242 | 64 | 164 | 4.0 | 7.0 | 0.00 | 0.00 | 0.00 | 72 | 1015.4 |
| 20260506033739 | 64 | 146 | 5.0 | 7.0 | 0.00 | 0.00 | 0.00 | 72 | 1015.3 |
| 20260506033236 | 65 | 158 | 4.0 | 9.0 | 0.00 | 0.00 | 0.00 | 71 | 1015.2 |
| 20260506032733 | 65 | 145 | 7.0 | 8.0 | 0.00 | 0.00 | 0.00 | 71 | 1015.3 |
| 20260506032230 | 65 | 158 | 4.0 | 10.0 | 0.00 | 0.00 | 0.00 | 71 | 1015.1 |
| 20260506031726 | 65 | 214 | 4.0 | 7.0 | 0.00 | 0.00 | 0.00 | 71 | 1015.1 |
| 20260506031223 | 65 | 163 | 4.0 | 6.0 | 0.00 | 0.00 | 0.00 | 70 | 1015.2 |
| 20260506030722 | 66 | 162 | 5.0 | 14.0 | 0.00 | 0.00 | 0.00 | 70 | 1015.2 |
| 20260506030219 | 65 | 160 | 5.0 | 11.0 | 0.00 | 0.00 | 0.00 | 70 | 1015.3 |
| 20260506025716 | 65 | 162 | 6.0 | 7.0 | 0.00 | 0.00 | 0.00 | 70 | 1015.2 |
| 20260506025212 | 65 | 225 | 3.0 | 10.0 | 0.00 | 0.00 | 0.00 | 69 | 1015.2 |
| 20260506024709 | 66 | 171 | 4.0 | 13.0 | 0.00 | 0.00 | 0.00 | 69 | 1015.4 |
| 20260506024206 | 66 | 169 | 5.0 | 13.0 | 0.00 | 0.00 | 0.00 | 69 | 1015.4 |
| 20260506023702 | 66 | 319 | 2.0 | 11.0 | 0.00 | 0.00 | 0.00 | 69 | 1015.5 |
| 20260506023200 | 66 | 201 | 5.0 | 11.0 | 0.00 | 0.00 | 0.00 | 68 | 1015.6 |
| 20260506022656 | 66 | 167 | 15.0 | 15.0 | 0.00 | 0.00 | 0.00 | 68 | 1015.5 |
| 20260506022154 | 66 | 167 | 5.0 | 6.0 | 0.00 | 0.00 | 0.00 | 68 | 1015.4 |
| 20260506021652 | 66 | 158 | 7.0 | 10.0 | 0.00 | 0.00 | 0.00 | 68 | 1015.5 |
| 20260506021148 | 66 | 162 | 7.0 | 9.0 | 0.00 | 0.00 | 0.00 | 68 | 1015.4 |
| 20260506020645 | 66 | 246 | 2.0 | 8.0 | 0.00 | 0.00 | 0.00 | 68 | 1015.6 |
| 20260506020143 | 66 | 206 | 5.0 | 9.0 | 0.00 | 0.00 | 0.00 | 68 | 1015.5 |
| 20260506015641 | 66 | 162 | 4.0 | 8.0 | 0.00 | 0.00 | 0.00 | 68 | 1015.4 |
| 20260506015138 | 66 | 178 | 6.0 | 9.0 | 0.00 | 0.00 | 0.00 | 68 | 1015.6 |
| 20260506014635 | 67 | 255 | 1.0 | 10.0 | 0.00 | 0.00 | 0.00 | 68 | 1015.2 |
| 20260506014130 | 67 | 174 | 4.0 | 10.0 | 0.00 | 0.00 | 0.00 | 68 | 1015.2 |
| 20260506013629 | 67 | 170 | 4.0 | 9.0 | 0.00 | 0.00 | 0.00 | 68 | 1015.4 |
| 20260506013126 | 67 | 170 | 4.0 | 19.0 | 0.00 | 0.00 | 0.00 | 67 | 1015.5 |
| 20260506012622 | 67 | 176 | 5.0 | 9.0 | 0.00 | 0.00 | 0.00 | 67 | 1015.3 |
| 20260506012118 | 67 | 193 | 3.0 | 9.0 | 0.00 | 0.00 | 0.00 | 67 | 1015.2 |
| 20260506011616 | 67 | 168 | 6.0 | 8.0 | 0.00 | 0.00 | 0.00 | 67 | 1015.2 |
| 20260506011112 | 67 | 154 | 8.0 | 12.0 | 0.00 | 0.00 | 0.00 | 67 | 1015.1 |
| 20260506010606 | 67 | 191 | 5.0 | 11.0 | 0.00 | 0.00 | 0.00 | 66 | 1015.3 |
| 20260506005559 | 68 | 128 | 5.0 | 13.0 | 0.00 | 0.00 | 0.00 | 64 | 1015.1 |
| 20260506005055 | 68 | 166 | 6.0 | 12.0 | 0.00 | 0.00 | 0.00 | 63 | 1015.3 |
| 20260506004553 | 68 | 159 | 7.0 | 11.0 | 0.00 | 0.00 | 0.00 | 62 | 1015.1 |
| 20260506004049 | 68 | 180 | 5.0 | 10.0 | 0.00 | 0.00 | 0.00 | 62 | 1015.2 |
| 20260506003546 | 68 | 180 | 4.0 | 7.0 | 0.00 | 0.00 | 0.00 | 61 | 1014.8 |
| 20260506003042 | 68 | 170 | 3.0 | 15.0 | 0.00 | 0.00 | 0.00 | 61 | 1015.0 |
| 20260506002538 | 68 | 180 | 4.0 | 9.0 | 0.00 | 0.00 | 0.00 | 61 | 1014.9 |
| 20260506002034 | 68 | 180 | 4.0 | 17.0 | 0.00 | 0.00 | 0.00 | 61 | 1014.9 |
| 20260506001530 | 68 | 183 | 7.0 | 9.0 | 0.00 | 0.00 | 0.00 | 61 | 1014.7 |
| 20260506001028 | 68 | 184 | 6.0 | 11.0 | 0.00 | 0.00 | 0.00 | 60 | 1014.7 |
| 20260506000525 | 68 | 163 | 5.0 | 8.0 | 0.00 | 0.00 | 0.00 | 60 | 1014.6 |
| 20260506000023 | 68 | 186 | 6.0 | 8.0 | 0.00 | 0.00 | 0.00 | 60 | 1014.5 |
| 20260505235521 | 68 | 154 | 4.0 | 7.0 | 0.00 | 0.00 | 0.00 | 59 | 1014.5 |
| 20260505235017 | 69 | 182 | 4.0 | 8.0 | 0.00 | 0.00 | 0.00 | 58 | 1014.4 |
| 20260505234514 | 69 | 191 | 5.0 | 16.0 | 0.00 | 0.00 | 0.00 | 58 | 1014.6 |
| 20260505234011 | 69 | 181 | 8.0 | 12.0 | 0.00 | 0.00 | 0.00 | 58 | 1014.3 |
| 20260505233508 | 69 | 169 | 2.0 | 8.0 | 0.00 | 0.00 | 0.00 | 58 | 1014.3 |
| 20260505233006 | 69 | 255 | 1.0 | 10.0 | 0.00 | 0.00 | 0.00 | 57 | 1014.4 |
| 20260505232504 | 69 | 154 | 7.0 | 11.0 | 0.00 | 0.00 | 0.00 | 57 | 1014.4 |
| 20260505232001 | 70 | 176 | 4.0 | 14.0 | 0.00 | 0.00 | 0.00 | 56 | 1014.2 |
| 20260505231457 | 70 | 172 | 6.0 | 12.0 | 0.00 | 0.00 | 0.00 | 56 | 1014.3 |
| 20260505230956 | 70 | 189 | 6.0 | 9.0 | 0.00 | 0.00 | 0.00 | 56 | 1014.4 |
| 20260505230453 | 70 | 212 | 3.0 | 7.0 | 0.00 | 0.00 | 0.00 | 55 | 1014.3 |
| 20260505225949 | 71 | 80 | 4.0 | 11.0 | 0.00 | 0.00 | 0.00 | 55 | 1014.1 |
| 20260505225447 | 71 | 225 | 3.0 | 16.0 | 0.00 | 0.00 | 0.00 | 54 | 1014.1 |
| 20260505224942 | 71 | 210 | 4.0 | 11.0 | 0.00 | 0.00 | 0.00 | 54 | 1014.0 |
| 20260505224439 | 71 | 156 | 7.0 | 8.0 | 0.00 | 0.00 | 0.00 | 54 | 1014.0 |
| 20260505223937 | 71 | 197 | 2.0 | 10.0 | 0.00 | 0.00 | 0.00 | 53 | 1013.8 |
| 20260505223433 | 72 | 192 | 7.0 | 11.0 | 0.00 | 0.00 | 0.00 | 53 | 1013.8 |
| 20260505222930 | 72 | 172 | 3.0 | 14.0 | 0.00 | 0.00 | 0.00 | 52 | 1014.1 |
| 20260505222426 | 72 | 180 | 4.0 | 11.0 | 0.00 | 0.00 | 0.00 | 51 | 1014.0 |
| 20260505221922 | 73 | 184 | 0.0 | 6.0 | 0.00 | 0.00 | 0.00 | 51 | 1013.6 |
| 20260505221420 | 73 | 184 | 4.0 | 11.0 | 0.00 | 0.00 | 0.00 | 51 | 1013.7 |
| 20260505220917 | 73 | 164 | 3.0 | 6.0 | 0.00 | 0.00 | 0.00 | 52 | 1013.7 |
| 20260505220414 | 73 | 148 | 3.0 | 8.0 | 0.00 | 0.00 | 0.00 | 52 | 1013.7 |
| 20260505215911 | 73 | 169 | 5.0 | 7.0 | 0.00 | 0.00 | 0.00 | 51 | 1013.7 |
| 20260505215409 | 73 | 180 | 3.0 | 6.0 | 0.00 | 0.00 | 0.00 | 50 | 1013.3 |
| 20260505214907 | 74 | 196 | 6.0 | 9.0 | 0.00 | 0.00 | 0.00 | 49 | 1013.3 |
| 20260505214404 | 74 | 161 | 7.0 | 8.0 | 0.00 | 0.00 | 0.00 | 49 | 1013.5 |
| 20260505213901 | 74 | 180 | 4.0 | 10.0 | 0.00 | 0.00 | 0.00 | 48 | 1013.3 |
| 20260505213359 | 74 | 172 | 5.0 | 13.0 | 0.00 | 0.00 | 0.00 | 48 | 1013.2 |
| 20260505212855 | 75 | 185 | 3.0 | 7.0 | 0.00 | 0.00 | 0.00 | 47 | 1013.4 |
| 20260505212352 | 75 | 169 | 8.0 | 16.0 | 0.00 | 0.00 | 0.00 | 46 | 1013.4 |
| 20260505211848 | 75 | 307 | 3.0 | 13.0 | 0.00 | 0.00 | 0.00 | 45 | 1013.1 |
| 20260505211346 | 77 | 183 | 9.0 | 11.0 | 0.00 | 0.00 | 0.00 | 44 | 1013.3 |
| 20260505210842 | 76 | 184 | 4.0 | 7.0 | 0.00 | 0.00 | 0.00 | 46 | 1013.1 |
| 20260505210339 | 77 | 157 | 11.0 | 11.0 | 0.00 | 0.00 | 0.00 | 46 | 1013.1 |
| 20260505205836 | 76 | 186 | 7.0 | 13.0 | 0.00 | 0.00 | 0.00 | 47 | 1013.1 |
| 20260505205334 | 77 | 180 | 3.0 | 11.0 | 0.00 | 0.00 | 0.00 | 46 | 1013.0 |
| 20260505204831 | 77 | 167 | 3.0 | 7.0 | 0.00 | 0.00 | 0.00 | 46 | 1012.8 |
| 20260505204329 | 77 | 158 | 9.0 | 10.0 | 0.00 | 0.00 | 0.00 | 47 | 1013.2 |
| 20260505203826 | 77 | 160 | 12.0 | 12.0 | 0.00 | 0.00 | 0.00 | 47 | 1013.2 |
| 20260505203322 | 77 | 183 | 3.0 | 9.0 | 0.00 | 0.00 | 0.00 | 47 | 1013.0 |
| 20260505202819 | 77 | 211 | 4.0 | 7.0 | 0.00 | 0.00 | 0.00 | 46 | 1013.1 |
| 20260505202315 | 77 | 192 | 1.0 | 15.0 | 0.00 | 0.00 | 0.00 | 47 | 1013.0 |
| 20260505201812 | 78 | 177 | 5.0 | 9.0 | 0.00 | 0.00 | 0.00 | 46 | 1013.2 |
| 20260505201309 | 78 | 180 | 3.0 | 9.0 | 0.00 | 0.00 | 0.00 | 48 | 1012.9 |
| 20260505200807 | 78 | 218 | 5.0 | 5.0 | 0.00 | 0.00 | 0.00 | 47 | 1012.9 |
| 20260505200304 | 77 | 115 | 2.0 | 9.0 | 0.00 | 0.00 | 0.00 | 50 | 1013.1 |
| 20260505195759 | 76 | 151 | 5.0 | 7.0 | 0.00 | 0.00 | 0.00 | 52 | 1013.2 |
| 20260505195257 | 77 | 161 | 3.0 | 6.0 | 0.00 | 0.00 | 0.00 | 51 | 1013.0 |
| 20260505194754 | 77 | 168 | 7.0 | 9.0 | 0.00 | 0.00 | 0.00 | 51 | 1013.2 |
| 20260505194251 | 76 | 180 | 6.0 | 11.0 | 0.00 | 0.00 | 0.00 | 52 | 1013.4 |
| 20260505193746 | 76 | 188 | 6.0 | 7.0 | 0.00 | 0.00 | 0.00 | 52 | 1013.3 |
| 20260505193244 | 77 | 168 | 4.0 | 11.0 | 0.00 | 0.00 | 0.00 | 51 | 1013.2 |
| 20260505192742 | 77 | 121 | 9.0 | 9.0 | 0.00 | 0.00 | 0.00 | 52 | 1013.4 |
| 20260505192240 | 77 | 178 | 3.0 | 8.0 | 0.00 | 0.00 | 0.00 | 52 | 1013.5 |
| 20260505191737 | 77 | 189 | 7.0 | 7.0 | 0.00 | 0.00 | 0.00 | 52 | 1013.5 |
| 20260505191236 | 77 | 149 | 6.0 | 9.0 | 0.00 | 0.00 | 0.00 | 51 | 1013.6 |
| 20260505190732 | 78 | 195 | 3.0 | 8.0 | 0.00 | 0.00 | 0.00 | 50 | 1013.6 |
| 20260505190232 | 78 | 197 | 2.0 | 7.0 | 0.00 | 0.00 | 0.00 | 51 | 1013.8 |
| 20260505185728 | 78 | 187 | 5.0 | 5.0 | 0.00 | 0.00 | 0.00 | 49 | 1013.8 |
| 20260505185225 | 78 | 174 | 4.0 | 13.0 | 0.00 | 0.00 | 0.00 | 50 | 1013.9 |
| 20260505184721 | 78 | 218 | 3.0 | 5.0 | 0.00 | 0.00 | 0.00 | 51 | 1013.6 |
| 20260505184219 | 78 | 151 | 1.0 | 5.0 | 0.00 | 0.00 | 0.00 | 53 | 1013.9 |
| 20260505183715 | 77 | 118 | 6.0 | 7.0 | 0.00 | 0.00 | 0.00 | 54 | 1013.9 |
| 20260505183213 | 76 | 180 | 3.0 | 9.0 | 0.00 | 0.00 | 0.00 | 55 | 1014.0 |
| 20260505182709 | 76 | 161 | 4.0 | 14.0 | 0.00 | 0.00 | 0.00 | 56 | 1014.0 |
| 20260505182206 | 76 | 161 | 4.0 | 7.0 | 0.00 | 0.00 | 0.00 | 54 | 1014.2 |
| 20260505181702 | 76 | 171 | 3.0 | 11.0 | 0.00 | 0.00 | 0.00 | 55 | 1014.2 |
| 20260505181200 | 77 | 185 | 5.0 | 5.0 | 0.00 | 0.00 | 0.00 | 54 | 1014.0 |
| 20260505180656 | 77 | 170 | 3.0 | 6.0 | 0.00 | 0.00 | 0.00 | 55 | 1014.2 |
| 20260505180153 | 77 | 168 | 4.0 | 6.0 | 0.00 | 0.00 | 0.00 | 54 | 1014.3 |
| 20260505175649 | 77 | 172 | 3.0 | 9.0 | 0.00 | 0.00 | 0.00 | 54 | 1014.2 |
| 20260505175145 | 76 | 181 | 5.0 | 9.0 | 0.00 | 0.00 | 0.00 | 54 | 1014.4 |
| 20260505174642 | 77 | 171 | 3.0 | 6.0 | 0.00 | 0.00 | 0.00 | 53 | 1014.2 |
| 20260505174138 | 76 | 161 | 4.0 | 7.0 | 0.00 | 0.00 | 0.00 | 54 | 1014.1 |
| 20260505173635 | 75 | 159 | 3.0 | 11.0 | 0.00 | 0.00 | 0.00 | 55 | 1014.2 |
| 20260505173132 | 76 | 152 | 5.0 | 15.0 | 0.00 | 0.00 | 0.00 | 54 | 1014.3 |
| 20260505172630 | 75 | 178 | 4.0 | 11.0 | 0.00 | 0.00 | 0.00 | 55 | 1014.3 |